When you browse on this site, cookies collect data to enhance your experience and personalize the content and advertising you see.
Visit our Privacy Policy to learn more. By continuing to use the site, you agree to this use of cookies and data.
  • In Latvia
  • List of Countries
  • For 7 days
  • Water Temperature
  • Satellite Maps
  • Weather Map
  • Weather Widgets
  • user-avatar
    Login

    Hourly Weather Macerata

    Today, 15 December, Saturday

    Time Temperature Precipitation Wind Pressure Humidity
    00:00 +2°C° 0.3 mm 5 mps 733 mmHg 84%
    01:00 +1°C° 0 mm 5 mps 733 mmHg 84%
    02:00 +1°C° 0 mm 5 mps 733 mmHg 84%
    03:00 +1°C° 0 mm 5 mps 734 mmHg 84%
    04:00 +1°C° 0 mm 6 mps 734 mmHg 84%
    05:00 +1°C° 0 mm 6 mps 734 mmHg 84%
    06:00 -1°C° 0 mm 6 mps 734 mmHg 84%
    07:00 0°C° 0 mm 5 mps 734 mmHg 84%
    08:00 +1°C° 0 mm 6 mps 734 mmHg 81%
    09:00 0°C° 0 mm 7 mps 735 mmHg 78%
    10:00 +2°C° 0 mm 7 mps 735 mmHg 74%
    11:00 +2°C° 0 mm 7 mps 735 mmHg 73%
    12:00 +2°C° 0 mm 7 mps 736 mmHg 71%
    13:00 +2°C° 0 mm 8 mps 736 mmHg 70%
    14:00 +2°C° 0 mm 7 mps 736 mmHg 71%
    15:00 +2°C° 0 mm 7 mps 736 mmHg 72%
    16:00 +2°C° 0 mm 7 mps 736 mmHg 73%
    17:00 +1°C° 0 mm 6 mps 737 mmHg 74%
    18:00 +1°C° 0 mm 6 mps 737 mmHg 76%
    19:00 0°C° 0 mm 5 mps 737 mmHg 77%
    20:00 0°C° 0 mm 5 mps 737 mmHg 76%
    21:00 0°C° 0 mm 5 mps 738 mmHg 76%
    22:00 0°C° 0 mm 4 mps 738 mmHg 76%
    23:00 0°C° 0 mm 4 mps 738 mmHg 76%

    Tomorrow, 16 December, Sunday

    Time Temperature Precipitation Wind Pressure Humidity
    00:00 0°C° 0 mm 4 mps 738 mmHg 76%
    01:00 0°C° 0 mm 3 mps 738 mmHg 76%
    02:00 0°C° 0 mm 3 mps 738 mmHg 76%
    03:00 0°C° 0 mm 3 mps 738 mmHg 75%
    04:00 0°C° 0 mm 3 mps 737 mmHg 75%
    05:00 0°C° 0 mm 3 mps 738 mmHg 74%
    06:00 +1°C° 0 mm 2 mps 738 mmHg 72%
    07:00 +1°C° 0 mm 2 mps 738 mmHg 71%
    08:00 +2°C° 0 mm 2 mps 738 mmHg 67%
    09:00 +3°C° 0 mm 2 mps 739 mmHg 62%
    10:00 +6°C° 0 mm 1 mps 739 mmHg 58%
    11:00 +7°C° 0 mm 1 mps 739 mmHg 55%
    12:00 +7°C° 0 mm 1 mps 738 mmHg 52%
    13:00 +8°C° 0 mm 1 mps 738 mmHg 49%
    14:00 +8°C° 0 mm 1 mps 738 mmHg 54%
    15:00 +7°C° 0 mm 1 mps 738 mmHg 58%
    16:00 +5°C° 0 mm 2 mps 738 mmHg 63%
    17:00 +5°C° 0 mm 2 mps 738 mmHg 64%
    18:00 +4°C° 0 mm 2 mps 738 mmHg 65%
    19:00 +3°C° 0 mm 3 mps 738 mmHg 66%
    20:00 +3°C° 0.1 mm 3 mps 738 mmHg 66%
    21:00 +4°C° 0.1 mm 3 mps 738 mmHg 66%
    22:00 +4°C° 0.1 mm 3 mps 737 mmHg 66%
    23:00 +4°C° 1.2 mm 3 mps 737 mmHg 72%

    Day after tomorrow, 17 December, Monday

    Time Temperature Precipitation Wind Pressure Humidity
    00:00 +4°C° 1.2 mm 3 mps 736 mmHg 77%
    01:00 +5°C° 1.2 mm 2 mps 736 mmHg 83%
    02:00 +4°C° 4.1 mm 3 mps 735 mmHg 87%
    03:00 +3°C° 4.1 mm 3 mps 734 mmHg 92%
    04:00 +3°C° 4.1 mm 4 mps 734 mmHg 96%
    05:00 +3°C° 3.2 mm 4 mps 733 mmHg 96%
    06:00 +2°C° 3.2 mm 5 mps 733 mmHg 95%
    07:00 +3°C° 3.2 mm 6 mps 733 mmHg 95%
    08:00 +3°C° 1.5 mm 5 mps 734 mmHg 94%
    09:00 +3°C° 1.5 mm 5 mps 734 mmHg 94%
    10:00 +3°C° 1.5 mm 5 mps 734 mmHg 93%
    11:00 +3°C° 0.7 mm 5 mps 735 mmHg 93%
    12:00 +3°C° 0.7 mm 5 mps 735 mmHg 92%
    13:00 +3°C° 0.7 mm 5 mps 735 mmHg 91%
    14:00 +3°C° 0.5 mm 5 mps 735 mmHg 91%
    15:00 +3°C° 0.5 mm 6 mps 735 mmHg 90%
    16:00 +3°C° 0.5 mm 6 mps 735 mmHg 90%
    17:00 +3°C° 0.3 mm 7 mps 736 mmHg 88%
    18:00 +2°C° 0.3 mm 8 mps 737 mmHg 86%
    19:00 +2°C° 0.3 mm 8 mps 737 mmHg 85%
    20:00 +2°C° 0.3 mm 8 mps 738 mmHg 84%
    21:00 +2°C° 0.3 mm 8 mps 738 mmHg 83%
    22:00 +2°C° 0.3 mm 8 mps 739 mmHg 83%
    23:00 +2°C° 0.1 mm 8 mps 739 mmHg 83%

    18 December, Tuesday

    Time Temperature Precipitation Wind Pressure Humidity
    00:00 +2°C° 0.1 mm 8 mps 740 mmHg 83%
    01:00 +3°C° 0.1 mm 7 mps 740 mmHg 83%
    02:00 +3°C° 0 mm 7 mps 741 mmHg 83%
    03:00 +3°C° 0 mm 7 mps 741 mmHg 84%
    04:00 +3°C° 0 mm 6 mps 741 mmHg 85%
    05:00 +3°C° 0 mm 6 mps 742 mmHg 85%
    06:00 +3°C° 0 mm 6 mps 742 mmHg 86%
    07:00 +3°C° 0 mm 5 mps 743 mmHg 87%
    08:00 +3°C° 0 mm 5 mps 743 mmHg 86%
    09:00 +5°C° 0 mm 5 mps 744 mmHg 84%
    10:00 +5°C° 0 mm 5 mps 744 mmHg 83%
    11:00 +6°C° 0 mm 5 mps 744 mmHg 82%
    12:00 +6°C° 0 mm 5 mps 744 mmHg 80%
    13:00 +6°C° 0 mm 5 mps 744 mmHg 79%
    14:00 +6°C° 0 mm 4 mps 744 mmHg 81%
    15:00 +5°C° 0 mm 4 mps 743 mmHg 83%
    16:00 +5°C° 0 mm 3 mps 743 mmHg 85%
    17:00 +4°C° 0 mm 3 mps 743 mmHg 84%
    18:00 +4°C° 0 mm 3 mps 743 mmHg 83%
    19:00 +3°C° 0 mm 3 mps 743 mmHg 82%
    20:00 +3°C° 0 mm 3 mps 743 mmHg 80%
    21:00 +3°C° 0 mm 3 mps 743 mmHg 78%
    22:00 +2°C° 0 mm 3 mps 743 mmHg 76%
    23:00 +2°C° 0 mm 3 mps 743 mmHg 74%

    19 December, Wednesday

    Time Temperature Precipitation Wind Pressure Humidity
    00:00 +2°C° 0 mm 3 mps 742 mmHg 71%
    01:00 +3°C° 0 mm 2 mps 742 mmHg 69%
    02:00 +3°C° 0 mm 2 mps 742 mmHg 68%
    03:00 +3°C° 0 mm 2 mps 742 mmHg 66%
    04:00 +3°C° 0 mm 2 mps 741 mmHg 65%
    05:00 +3°C° 0 mm 2 mps 741 mmHg 64%
    06:00 +3°C° 0 mm 2 mps 741 mmHg 63%
    07:00 +3°C° 0 mm 2 mps 741 mmHg 62%
    08:00 +4°C° 0 mm 2 mps 741 mmHg 62%
    09:00 +5°C° 0 mm 2 mps 741 mmHg 61%
    10:00 +6°C° 0 mm 2 mps 742 mmHg 60%
    11:00 +8°C° 0 mm 1 mps 741 mmHg 61%
    12:00 +8°C° 0 mm 1 mps 741 mmHg 62%
    13:00 +9°C° 0 mm 1 mps 741 mmHg 63%
    14:00 +8°C° 0 mm 1 mps 740 mmHg 65%
    15:00 +8°C° 0 mm 1 mps 740 mmHg 68%
    16:00 +7°C° 0 mm 1 mps 740 mmHg 70%
    17:00 +7°C° 0 mm 1 mps 740 mmHg 70%
    18:00 +7°C° 0 mm 1 mps 740 mmHg 70%
    19:00 +6°C° 0 mm 1 mps 740 mmHg 70%
    20:00 +6°C° 0 mm 1 mps 740 mmHg 70%
    21:00 +6°C° 0 mm 1 mps 740 mmHg 70%
    22:00 +6°C° 0 mm 1 mps 740 mmHg 69%
    23:00 +5°C° 0 mm 2 mps 740 mmHg 69%

    20 December, Thursday

    Time Temperature Precipitation Wind Pressure Humidity
    00:00 +5°C° 0 mm 2 mps 739 mmHg 69%
    01:00 +5°C° 0 mm 2 mps 739 mmHg 69%
    02:00 +5°C° 0 mm 2 mps 739 mmHg 68%
    03:00 +5°C° 0 mm 2 mps 739 mmHg 66%
    04:00 +4°C° 0 mm 2 mps 738 mmHg 65%
    05:00 +4°C° 0 mm 3 mps 738 mmHg 64%
    06:00 +4°C° 0 mm 3 mps 738 mmHg 62%
    07:00 +4°C° 0 mm 3 mps 738 mmHg 61%
    08:00 +5°C° 0 mm 3 mps 738 mmHg 62%
    09:00 +7°C° 0 mm 3 mps 738 mmHg 63%
    10:00 +7°C° 0 mm 3 mps 738 mmHg 64%
    11:00 +7°C° 0.1 mm 4 mps 737 mmHg 66%
    12:00 +7°C° 0.1 mm 4 mps 737 mmHg 68%
    13:00 +8°C° 0.1 mm 5 mps 736 mmHg 70%
    14:00 +7°C° 0.7 mm 5 mps 736 mmHg 74%
    15:00 +6°C° 0.7 mm 4 mps 735 mmHg 78%
    16:00 +5°C° 0.7 mm 4 mps 735 mmHg 82%
    17:00 +5°C° 1.2 mm 3 mps 735 mmHg 84%
    18:00 +5°C° 1.2 mm 3 mps 735 mmHg 85%
    19:00 +5°C° 1.2 mm 2 mps 734 mmHg 87%
    20:00 +5°C° 0.4 mm 2 mps 734 mmHg 88%
    21:00 +5°C° 0.4 mm 2 mps 734 mmHg 88%
    22:00 +5°C° 0.4 mm 2 mps 734 mmHg 89%
    23:00 +5°C° 0.1 mm 2 mps 734 mmHg 90%
    Show more